| time (UTC) | temp F | wind direction | speed knots | gust knots | rain 1hr in | rain 24hr in | rain mn in | humidity % | barometer mb |
| 20260505032351 | 90 | 236 | 0.9 | 0.9 | 0.00 | 0.00 | 0.00 | 59 | 1004.0 |
| 20260505031851 | 90 | 265 | 2.6 | 2.6 | 0.00 | 0.00 | 0.00 | 59 | 1004.0 |
| 20260505031351 | 90 | 244 | 0.9 | 1.7 | 0.00 | 0.00 | 0.00 | 58 | 1004.0 |
| 20260505030850 | 89 | 166 | 0.0 | 0.0 | 0.00 | 0.00 | 0.00 | 60 | 1004.0 |
| 20260505030350 | 89 | 258 | 2.6 | 2.6 | 0.00 | 0.00 | 0.00 | 59 | 1004.0 |
| 20260505025851 | 90 | 298 | 2.6 | 2.6 | 0.00 | 0.00 | 0.00 | 57 | 1004.0 |
| 20260505025351 | 91 | 280 | 0.9 | 0.9 | 0.00 | 0.00 | 0.00 | 57 | 1004.0 |
| 20260505024850 | 91 | 143 | 0.9 | 0.9 | 0.00 | 0.00 | 0.00 | 56 | 1004.0 |
| 20260505024350 | 90 | 160 | 0.0 | 0.0 | 0.00 | 0.00 | 0.00 | 58 | 1004.0 |
| 20260505023851 | 90 | 269 | 2.6 | 4.3 | 0.00 | 0.00 | 0.00 | 57 | 1004.0 |
| 20260505023350 | 91 | 246 | 2.6 | 2.6 | 0.00 | 0.00 | 0.00 | 56 | 1004.0 |
| 20260505022851 | 91 | 247 | 0.0 | 0.9 | 0.00 | 0.00 | 0.00 | 55 | 1004.0 |
| 20260505022351 | 90 | 218 | 0.0 | 0.0 | 0.00 | 0.00 | 0.00 | 55 | 1004.0 |
| 20260505021851 | 91 | 234 | 0.0 | 0.9 | 0.00 | 0.00 | 0.00 | 54 | 1004.0 |
| 20260505021350 | 90 | 135 | 0.0 | 0.9 | 0.00 | 0.00 | 0.00 | 56 | 1003.0 |
| 20260505020852 | 90 | 170 | 0.0 | 0.0 | 0.00 | 0.00 | 0.00 | 56 | 1003.0 |
| 20260505020350 | 90 | 146 | 0.0 | 0.9 | 0.00 | 0.00 | 0.00 | 55 | 1003.0 |
| 20260505015850 | 90 | 130 | 0.0 | 0.0 | 0.00 | 0.00 | 0.00 | 56 | 1004.0 |
| 20260505015350 | 88 | 142 | 0.0 | 0.0 | 0.00 | 0.00 | 0.00 | 58 | 1003.0 |
| 20260505014851 | 88 | 82 | 0.9 | 0.9 | 0.00 | 0.00 | 0.00 | 57 | 1003.0 |
| 20260505014351 | 88 | 242 | 0.9 | 0.9 | 0.00 | 0.00 | 0.00 | 58 | 1003.0 |
| 20260505013851 | 87 | 160 | 0.0 | 0.0 | 0.00 | 0.00 | 0.00 | 59 | 1003.0 |
| 20260505013351 | 86 | 175 | 0.0 | 0.0 | 0.00 | 0.00 | 0.00 | 60 | 1003.0 |
| 20260505012851 | 86 | 177 | 0.0 | 0.0 | 0.00 | 0.00 | 0.00 | 61 | 1003.0 |
| 20260505012350 | 85 | 189 | 0.0 | 0.0 | 0.00 | 0.00 | 0.00 | 62 | 1003.0 |
| 20260505011850 | 85 | 158 | 1.7 | 1.7 | 0.00 | 0.00 | 0.00 | 62 | 1003.0 |
| 20260505011350 | 85 | 182 | 0.9 | 0.9 | 0.00 | 0.00 | 0.00 | 63 | 1003.0 |
| 20260505010851 | 85 | 170 | 0.0 | 0.0 | 0.00 | 0.00 | 0.00 | 63 | 1003.0 |
| 20260505010350 | 85 | 179 | 0.0 | 0.0 | 0.00 | 0.00 | 0.00 | 63 | 1003.0 |
| 20260505005851 | 85 | 172 | 0.0 | 0.0 | 0.00 | 0.00 | 0.00 | 63 | 1003.0 |
| 20260505005351 | 85 | 172 | 0.0 | 0.0 | 0.00 | 0.00 | 0.00 | 63 | 1003.0 |
| 20260505004851 | 85 | 175 | 0.0 | 0.0 | 0.00 | 0.00 | 0.00 | 63 | 1003.0 |
| 20260505004350 | 84 | 173 | 0.9 | 0.9 | 0.00 | 0.00 | 0.00 | 64 | 1003.0 |
| 20260505003850 | 84 | 177 | 0.0 | 0.0 | 0.00 | 0.00 | 0.00 | 64 | 1002.0 |
| 20260505003351 | 84 | 178 | 0.9 | 0.9 | 0.00 | 0.00 | 0.00 | 64 | 1003.0 |
| 20260505002851 | 84 | 190 | 0.9 | 0.9 | 0.00 | 0.00 | 0.00 | 64 | 1002.0 |
| 20260505002351 | 84 | 184 | 0.0 | 0.0 | 0.00 | 0.00 | 0.00 | 64 | 1002.0 |
| 20260505001850 | 84 | 184 | 0.9 | 0.9 | 0.00 | 0.00 | 0.00 | 64 | 1003.0 |
| 20260505001350 | 84 | 190 | 0.0 | 0.0 | 0.00 | 0.00 | 0.00 | 64 | 1003.0 |
| 20260505000850 | 84 | 169 | 0.0 | 0.0 | 0.00 | 0.00 | 0.00 | 64 | 1003.0 |
| 20260505000351 | 84 | 193 | 0.9 | 0.9 | 0.00 | 0.00 | 0.00 | 65 | 1002.0 |
| 20260504235851 | 84 | 214 | 1.7 | 1.7 | 0.00 | 0.00 | 0.00 | 65 | 1003.0 |
| 20260504235350 | 84 | 153 | 0.0 | 0.0 | 0.00 | 0.00 | 0.00 | 65 | 1002.0 |
| 20260504234851 | 84 | 216 | 1.7 | 1.7 | 0.00 | 0.00 | 0.00 | 65 | 1003.0 |
| 20260504234351 | 84 | 215 | 0.0 | 0.9 | 0.00 | 0.00 | 0.00 | 66 | 1002.0 |
| 20260504233851 | 84 | 161 | 0.0 | 0.0 | 0.00 | 0.00 | 0.00 | 65 | 1002.0 |
| 20260504233351 | 84 | 174 | 0.9 | 0.9 | 0.00 | 0.00 | 0.00 | 66 | 1003.0 |
| 20260504232851 | 84 | 182 | 0.0 | 0.0 | 0.00 | 0.00 | 0.00 | 66 | 1002.0 |
| 20260504232351 | 84 | 284 | 2.6 | 2.6 | 0.00 | 0.00 | 0.00 | 66 | 1003.0 |
| 20260504231852 | 84 | 203 | 0.9 | 1.7 | 0.00 | 0.00 | 0.00 | 67 | 1003.0 |
| 20260504231351 | 84 | 216 | 1.7 | 2.6 | 0.00 | 0.00 | 0.00 | 67 | 1002.0 |
| 20260504230851 | 84 | 258 | 0.9 | 0.9 | 0.00 | 0.00 | 0.00 | 68 | 1002.0 |
| 20260504230351 | 84 | 213 | 0.9 | 1.7 | 0.00 | 0.00 | 0.00 | 68 | 1002.0 |
| 20260504225851 | 84 | 179 | 0.9 | 0.9 | 0.00 | 0.00 | 0.00 | 68 | 1002.0 |
| 20260504225353 | 84 | 217 | 1.7 | 2.6 | 0.00 | 0.00 | 0.00 | 68 | 1002.0 |
| 20260504224851 | 84 | 200 | 0.9 | 1.7 | 0.00 | 0.00 | 0.00 | 68 | 1002.0 |
| 20260504224350 | 84 | 252 | 1.7 | 1.7 | 0.00 | 0.00 | 0.00 | 68 | 1002.0 |
| 20260504223850 | 84 | 176 | 0.0 | 0.0 | 0.00 | 0.00 | 0.00 | 69 | 1002.0 |
| 20260504223351 | 84 | 162 | 0.0 | 0.0 | 0.00 | 0.00 | 0.00 | 69 | 1002.0 |
| 20260504222850 | 84 | 233 | 0.9 | 0.9 | 0.00 | 0.00 | 0.00 | 69 | 1002.0 |
| 20260504222350 | 84 | 210 | 2.6 | 2.6 | 0.00 | 0.00 | 0.00 | 69 | 1002.0 |
| 20260504221851 | 84 | 190 | 1.7 | 1.7 | 0.00 | 0.00 | 0.00 | 70 | 1002.0 |
| 20260504221352 | 83 | 205 | 0.9 | 0.9 | 0.00 | 0.00 | 0.00 | 70 | 1002.0 |
| 20260504220403 | 83 | 169 | 0.0 | 0.0 | 0.00 | 0.00 | 0.00 | 71 | 1002.0 |
| 20260504215850 | 83 | 167 | 0.0 | 0.9 | 0.00 | 0.00 | 0.00 | 71 | 1003.0 |
| 20260504215352 | 83 | 202 | 2.6 | 2.6 | 0.00 | 0.00 | 0.00 | 71 | 1003.0 |
| 20260504214853 | 83 | 314 | 0.9 | 1.7 | 0.00 | 0.00 | 0.00 | 72 | 1003.0 |
| 20260504214351 | 83 | 230 | 2.6 | 2.6 | 0.00 | 0.00 | 0.00 | 72 | 1003.0 |
| 20260504213851 | 83 | 227 | 0.0 | 0.9 | 0.00 | 0.00 | 0.00 | 72 | 1003.0 |
| 20260504213351 | 83 | 281 | 2.6 | 2.6 | 0.00 | 0.00 | 0.00 | 72 | 1003.0 |
| 20260504212851 | 83 | 226 | 0.9 | 1.7 | 0.00 | 0.00 | 0.00 | 73 | 1003.0 |
| 20260504212351 | 83 | 196 | 0.0 | 0.0 | 0.00 | 0.00 | 0.00 | 73 | 1003.0 |
| 20260504211852 | 83 | 203 | 4.3 | 6.1 | 0.00 | 0.00 | 0.00 | 72 | 1003.0 |
| 20260504211352 | 84 | 267 | 2.6 | 5.2 | 0.00 | 0.00 | 0.00 | 72 | 1003.0 |
| 20260504210851 | 83 | 245 | 0.9 | 1.7 | 0.00 | 0.00 | 0.00 | 72 | 1003.0 |
| 20260504210352 | 83 | 276 | 1.7 | 2.6 | 0.00 | 0.00 | 0.00 | 72 | 1003.0 |
| 20260504205851 | 83 | 284 | 2.6 | 4.3 | 0.00 | 0.00 | 0.00 | 72 | 1003.0 |
| 20260504205352 | 84 | 257 | 7.8 | 9.6 | 0.00 | 0.00 | 0.00 | 71 | 1003.0 |
| 20260504204851 | 84 | 297 | 2.6 | 4.3 | 0.00 | 0.00 | 0.00 | 71 | 1003.0 |
| 20260504204352 | 85 | 315 | 4.3 | 7.8 | 0.00 | 0.00 | 0.00 | 70 | 1003.0 |
| 20260504203852 | 85 | 154 | 0.0 | 0.0 | 0.00 | 0.00 | 0.00 | 70 | 1003.0 |
| 20260504203352 | 86 | 8 | 2.6 | 4.3 | 0.00 | 0.00 | 0.00 | 69 | 1003.0 |
| 20260504202853 | 86 | 260 | 0.0 | 0.9 | 0.00 | 0.00 | 0.00 | 69 | 1003.0 |
| 20260504202353 | 86 | 287 | 2.6 | 4.3 | 0.00 | 0.00 | 0.00 | 69 | 1003.0 |
| 20260504201851 | 86 | 323 | 2.6 | 4.3 | 0.00 | 0.00 | 0.00 | 70 | 1003.0 |
| 20260504201351 | 86 | 114 | 2.6 | 2.6 | 0.00 | 0.00 | 0.00 | 70 | 1003.0 |
| 20260504200851 | 86 | 267 | 0.9 | 1.7 | 0.00 | 0.00 | 0.00 | 70 | 1003.0 |
| 20260504200351 | 86 | 282 | 0.9 | 1.7 | 0.00 | 0.00 | 0.00 | 70 | 1002.0 |
| 20260504195854 | 86 | 182 | 1.7 | 1.7 | 0.00 | 0.00 | 0.00 | 70 | 1003.0 |
| 20260504195350 | 86 | 186 | 1.7 | 1.7 | 0.00 | 0.00 | 0.00 | 70 | 1003.0 |
| 20260504194850 | 86 | 245 | 3.5 | 4.3 | 0.00 | 0.00 | 0.00 | 69 | 1002.0 |
| 20260504194352 | 86 | 247 | 2.6 | 2.6 | 0.00 | 0.00 | 0.00 | 69 | 1003.0 |
| 20260504193850 | 86 | 185 | 0.0 | 0.9 | 0.00 | 0.00 | 0.00 | 69 | 1003.0 |
| 20260504193352 | 86 | 189 | 0.9 | 1.7 | 0.00 | 0.00 | 0.00 | 69 | 1003.0 |
| 20260504192851 | 86 | 157 | 2.6 | 4.3 | 0.00 | 0.00 | 0.00 | 69 | 1003.0 |
| 20260504192351 | 86 | 189 | 0.9 | 1.7 | 0.00 | 0.00 | 0.00 | 70 | 1003.0 |
| 20260504191854 | 86 | 175 | 3.5 | 4.3 | 0.00 | 0.00 | 0.00 | 70 | 1003.0 |
| 20260504191351 | 86 | 197 | 0.9 | 1.7 | 0.00 | 0.00 | 0.00 | 70 | 1003.0 |
| 20260504190850 | 86 | 198 | 0.9 | 1.7 | 0.00 | 0.00 | 0.00 | 70 | 1003.0 |
| 20260504190353 | 86 | 156 | 1.7 | 2.6 | 0.00 | 0.00 | 0.00 | 70 | 1003.0 |
| 20260504185851 | 86 | 215 | 2.6 | 2.6 | 0.00 | 0.00 | 0.00 | 69 | 1003.0 |
| 20260504185353 | 86 | 176 | 1.7 | 2.6 | 0.00 | 0.00 | 0.00 | 69 | 1003.0 |
| 20260504184850 | 86 | 166 | 1.7 | 2.6 | 0.00 | 0.00 | 0.00 | 69 | 1003.0 |
| 20260504184353 | 86 | 164 | 1.7 | 1.7 | 0.00 | 0.00 | 0.00 | 69 | 1003.0 |
| 20260504183851 | 86 | 188 | 0.9 | 1.7 | 0.00 | 0.00 | 0.00 | 69 | 1003.0 |
| 20260504183350 | 86 | 214 | 2.6 | 5.2 | 0.00 | 0.00 | 0.00 | 69 | 1003.0 |
| 20260504182851 | 86 | 209 | 3.5 | 4.3 | 0.00 | 0.00 | 0.00 | 69 | 1003.0 |
| 20260504182351 | 86 | 222 | 3.5 | 4.3 | 0.00 | 0.00 | 0.00 | 69 | 1003.0 |
| 20260504181852 | 86 | 242 | 1.7 | 1.7 | 0.00 | 0.00 | 0.00 | 69 | 1003.0 |
| 20260504181351 | 86 | 225 | 5.2 | 6.1 | 0.00 | 0.00 | 0.00 | 69 | 1003.0 |
| 20260504180853 | 87 | 209 | 3.5 | 5.2 | 0.00 | 0.00 | 0.00 | 69 | 1003.0 |
| 20260504180351 | 87 | 228 | 4.3 | 7.0 | 0.00 | 0.00 | 0.00 | 69 | 1003.0 |
| 20260504175851 | 87 | 214 | 4.3 | 7.8 | 0.00 | 0.00 | 0.00 | 69 | 1003.0 |
| 20260504175351 | 87 | 217 | 2.6 | 4.3 | 0.00 | 0.00 | 0.00 | 69 | 1003.0 |
| 20260504174851 | 87 | 256 | 4.3 | 6.1 | 0.00 | 0.00 | 0.00 | 70 | 1003.0 |
| 20260504174351 | 87 | 189 | 2.6 | 4.3 | 0.00 | 0.00 | 0.00 | 70 | 1003.0 |
| 20260504173851 | 87 | 285 | 1.7 | 2.6 | 0.00 | 0.00 | 0.00 | 71 | 1003.0 |
| 20260504173352 | 87 | 218 | 4.3 | 7.0 | 0.00 | 0.00 | 0.00 | 71 | 1003.0 |
| 20260504172852 | 87 | 188 | 4.3 | 5.2 | 0.00 | 0.00 | 0.00 | 71 | 1003.0 |
| 20260504172352 | 87 | 195 | 2.6 | 5.2 | 0.00 | 0.00 | 0.00 | 71 | 1003.0 |
| 20260504171851 | 87 | 196 | 4.3 | 7.0 | 0.00 | 0.00 | 0.00 | 71 | 1003.0 |
| 20260504171352 | 87 | 170 | 1.7 | 2.6 | 0.00 | 0.00 | 0.00 | 71 | 1003.0 |
| 20260504170853 | 87 | 219 | 6.1 | 7.0 | 0.00 | 0.00 | 0.00 | 70 | 1003.0 |
| 20260504170351 | 87 | 204 | 2.6 | 5.2 | 0.00 | 0.00 | 0.00 | 70 | 1003.0 |
| 20260504160351 | 87 | 174 | 6.1 | 7.0 | 0.00 | 0.00 | 0.00 | 78 | 1003.0 |
| 20260504150853 | 88 | 213 | 4.3 | 5.2 | 0.00 | 0.00 | 0.00 | 72 | 1003.0 |
| 20260504150351 | 88 | 214 | 4.3 | 5.2 | 0.00 | 0.00 | 0.00 | 71 | 1003.0 |
| 20260504140852 | 87 | 214 | 5.2 | 7.8 | 0.00 | 0.00 | 0.00 | 71 | 1001.0 |
| 20260504140353 | 87 | 145 | 7.0 | 7.0 | 0.00 | 0.00 | 0.00 | 71 | 1001.0 |
| 20260504130351 | 88 | 167 | 6.1 | 7.8 | 0.00 | 0.00 | 0.00 | 70 | 1001.0 |
| 20260504110351 | 94 | 153 | 3.5 | 5.2 | 0.00 | 0.00 | 0.00 | 60 | 999.0 |
| 20260504100352 | 97 | 122 | 0.9 | 2.6 | 0.00 | 0.00 | 0.00 | 51 | 999.0 |
| 20260504081851 | 99 | 239 | 3.5 | 4.3 | 0.00 | 0.00 | 0.00 | 46 | 1001.0 |
| 20260504081351 | 98 | 123 | 0.9 | 0.9 | 0.00 | 0.00 | 0.00 | 48 | 1001.0 |
| 20260504080851 | 99 | 299 | 3.5 | 4.3 | 0.00 | 0.00 | 0.00 | 47 | 1001.0 |
| 20260504080351 | 98 | 179 | 3.5 | 4.3 | 0.00 | 0.00 | 0.00 | 49 | 1001.0 |
| 20260504070350 | 96 | 230 | 3.5 | 4.3 | 0.00 | 0.00 | 0.00 | 53 | 1002.0 |
| 20260504050350 | 91 | 195 | 4.3 | 6.1 | 0.00 | 0.00 | 0.00 | 58 | 1004.0 |
| 20260504045851 | 91 | 138 | 7.8 | 11.3 | 0.00 | 0.00 | 0.00 | 58 | 1004.0 |
| 20260504045350 | 91 | 222 | 3.5 | 5.2 | 0.00 | 0.00 | 0.00 | 58 | 1004.0 |
| 20260504044851 | 90 | 165 | 2.6 | 2.6 | 0.00 | 0.00 | 0.00 | 59 | 1004.0 |
| 20260504044352 | 89 | 215 | 4.3 | 5.2 | 0.00 | 0.00 | 0.00 | 60 | 1004.0 |
| 20260504043850 | 89 | 134 | 3.5 | 5.2 | 0.00 | 0.00 | 0.00 | 60 | 1004.0 |
| 20260504043351 | 88 | 176 | 4.3 | 5.2 | 0.00 | 0.00 | 0.00 | 62 | 1004.0 |
| 20260504042850 | 88 | 234 | 5.2 | 6.1 | 0.00 | 0.00 | 0.00 | 64 | 1004.0 |
| 20260504042353 | 88 | 151 | 6.1 | 7.0 | 0.00 | 0.00 | 0.00 | 64 | 1004.0 |
| 20260504041851 | 88 | 204 | 4.3 | 7.8 | 0.00 | 0.00 | 0.00 | 64 | 1004.0 |
| 20260504041351 | 87 | 175 | 5.2 | 6.1 | 0.00 | 0.00 | 0.00 | 65 | 1005.0 |
| 20260504040851 | 87 | 209 | 6.1 | 7.0 | 0.00 | 0.00 | 0.00 | 65 | 1004.0 |
| 20260504040350 | 87 | 157 | 8.7 | 11.3 | 0.00 | 0.00 | 0.00 | 66 | 1004.0 |
| 20260504035850 | 87 | 176 | 4.3 | 6.1 | 0.00 | 0.00 | 0.00 | 67 | 1004.0 |
| 20260504035350 | 86 | 185 | 7.8 | 12.2 | 0.00 | 0.00 | 0.00 | 68 | 1004.0 |
| 20260504034851 | 86 | 159 | 7.0 | 8.7 | 0.00 | 0.00 | 0.00 | 69 | 1004.0 |
| 20260504034351 | 87 | 206 | 7.0 | 8.7 | 0.00 | 0.00 | 0.00 | 70 | 1004.0 |
| 20260504033850 | 87 | 192 | 5.2 | 7.0 | 0.00 | 0.00 | 0.00 | 70 | 1004.0 |
| 20260504033350 | 87 | 146 | 6.1 | 7.8 | 0.00 | 0.00 | 0.00 | 70 | 1005.0 |
| 20260504032851 | 87 | 155 | 4.3 | 6.1 | 0.00 | 0.00 | 0.00 | 70 | 1005.0 |